KT1D-13 Weather Reports


Display with metric or nautical units.
time (UTC)temp
F
wind
direction
speed
MPH
gust
MPH
rain 1hr
in
rain 24hr
in
rain mn
in
humidity
%
barometer
mb
20260507234522 57 246 3.0 7.0 0.00 0.00 0.00 40 1006.1
20260507233523 58 254 3.0 5.0 0.00 0.00 0.00 40 1006.0
20260507232522 58 236 2.0 4.0 0.00 0.00 0.00 40 1006.0
20260507231517 58 242 2.0 5.0 0.00 0.00 0.00 39 1005.9
20260507230617 59 240 3.0 8.0 0.00 0.00 0.00 38 1005.9
20260507225517 59 255 2.0 6.0 0.00 0.00 0.00 37 1005.7
20260507224520 60 251 5.0 11.0 0.00 0.00 0.00 36 1005.6
20260507223523 60 258 3.0 9.0 0.00 0.00 0.00 36 1005.5
20260507222538 61 254 3.0 8.0 0.00 0.00 0.00 36 1005.5
20260507221518 61 238 3.0 7.0 0.00 0.00 0.00 36 1005.4
20260507220518 61 265 4.0 7.0 0.00 0.00 0.00 36 1005.3
20260507215517 61 265 3.0 7.0 0.00 0.00 0.00 36 1005.2
20260507214518 62 253 3.0 9.0 0.00 0.00 0.00 36 1005.1
20260507213538 62 258 3.0 8.0 0.00 0.00 0.00 35 1005.0
20260507212518 62 242 4.0 10.0 0.00 0.00 0.00 35 1004.9
20260507211518 62 266 4.0 8.0 0.00 0.00 0.00 35 1004.9
20260507210518 62 243 4.0 9.0 0.00 0.00 0.00 35 1004.8
20260507205519 62 242 6.0 10.0 0.00 0.00 0.00 35 1004.8
20260507204519 62 282 4.0 8.0 0.00 0.00 0.00 35 1004.8
20260507203519 62 246 4.0 7.0 0.00 0.00 0.00 36 1004.9
20260507202519 62 348 4.0 7.0 0.00 0.00 0.00 36 1004.8
20260507201519 62 246 4.0 8.0 0.00 0.00 0.00 37 1004.8
20260507200519 62 294 4.0 7.0 0.00 0.00 0.00 37 1004.9
20260507195520 62 260 4.0 8.0 0.00 0.00 0.00 37 1005.0
20260507194517 62 260 6.0 11.0 0.00 0.00 0.00 36 1005.1
20260507193540 62 263 4.0 9.0 0.00 0.00 0.00 36 1005.2
20260507192517 61 262 4.0 13.0 0.00 0.00 0.00 36 1005.3
20260507191520 62 277 4.0 8.0 0.00 0.00 0.00 34 1005.3
20260507190520 62 227 5.0 10.0 0.00 0.00 0.00 33 1005.3
20260507185521 62 249 5.0 10.0 0.00 0.00 0.00 34 1005.5
20260507184521 61 247 5.0 10.0 0.00 0.00 0.00 34 1005.6
20260507183521 61 257 4.0 9.0 0.00 0.00 0.00 35 1005.7
20260507182518 61 254 6.0 15.0 0.00 0.00 0.00 34 1005.6
20260507181521 61 255 4.0 8.0 0.00 0.00 0.00 34 1005.7
20260507180518 60 252 6.0 11.0 0.00 0.00 0.00 36 1005.8
20260507175518 61 267 6.0 12.0 0.00 0.00 0.00 39 1005.8
20260507174518 61 236 5.0 11.0 0.00 0.00 0.00 39 1005.9
20260507173518 60 243 5.0 11.0 0.00 0.00 0.00 41 1005.9
20260507172518 60 250 6.0 17.0 0.00 0.00 0.00 40 1005.8
20260507171522 61 278 4.0 10.0 0.00 0.00 0.00 41 1006.0
20260507170542 61 264 4.0 9.0 0.00 0.00 0.00 42 1006.2
20260507165519 60 260 5.0 10.0 0.00 0.00 0.00 44 1006.2
20260507164519 60 290 4.0 10.0 0.00 0.00 0.00 46 1006.3
20260507163539 59 246 6.0 10.0 0.00 0.00 0.00 47 1006.4
20260507162516 59 349 3.0 9.0 0.00 0.00 0.00 49 1006.6
20260507161516 59 286 4.0 10.0 0.00 0.00 0.00 51 1006.6
20260507160520 58 236 4.0 13.0 0.00 0.00 0.00 56 1006.7
20260507155523 59 250 4.0 9.0 0.00 0.00 0.00 54 1006.7
20260507154519 58 254 5.0 12.0 0.00 0.00 0.00 58 1006.8
20260507153520 58 240 5.0 11.0 0.00 0.00 0.00 57 1006.8
20260507152517 58 250 5.0 10.0 0.00 0.00 0.00 60 1006.9
20260507151517 58 30 2.0 7.0 0.00 0.00 0.00 61 1007.1
20260507150517 57 262 4.0 8.0 0.00 0.00 0.00 62 1007.2
20260507145529 57 274 2.0 5.0 0.00 0.00 0.00 62 1007.3
20260507144537 57 250 3.0 8.0 0.00 0.00 0.00 62 1007.5
20260507143529 57 256 2.0 5.0 0.00 0.00 0.00 60 1007.6
20260507142529 57 282 2.0 5.0 0.00 0.00 0.00 62 1007.5
20260507141530 56 246 2.0 4.0 0.00 0.00 0.00 62 1007.6
20260507140530 56 344 2.0 5.0 0.00 0.00 0.00 62 1007.6
20260507135518 55 304 3.0 6.0 0.00 0.00 0.00 64 1007.6
20260507134518 55 271 3.0 7.0 0.00 0.00 0.00 67 1007.5
20260507133518 54 265 3.0 6.0 0.00 0.00 0.00 67 1007.5
20260507132519 54 253 3.0 7.0 0.00 0.00 0.00 69 1007.6
20260507131519 53 263 2.0 5.0 0.00 0.00 0.00 72 1007.7
20260507130530 53 251 2.0 4.0 0.00 0.00 0.00 75 1007.6
20260507125538 52 334 3.0 7.0 0.00 0.00 0.00 78 1007.6
20260507124530 51 242 2.0 3.0 0.00 0.00 0.00 83 1007.7
20260507123519 50 237 2.0 5.0 0.00 0.00 0.00 88 1007.7
20260507122531 49 252 3.0 4.0 0.00 0.00 0.00 89 1007.6
20260507121519 49 234 2.0 7.0 0.00 0.00 0.00 92 1007.7
20260507120531 49 240 2.0 3.0 0.00 0.00 0.00 93 1007.6
20260507115531 49 284 1.0 2.0 0.00 0.00 0.00 94 1007.6
20260507114531 48 255 1.0 2.0 0.00 0.00 0.00 95 1007.6
20260507113532 48 258 1.0 4.0 0.00 0.00 0.00 96 1007.4
20260507112532 48 246 2.0 4.0 0.00 0.00 0.00 96 1007.5
20260507111537 48 237 2.0 3.0 0.00 0.00 0.00 96 1007.5
20260507110517 48 232 0.0 1.0 0.00 0.00 0.00 96 1007.3
20260507105517 48 272 1.0 2.0 0.00 0.00 0.00 96 1007.4
20260507104517 48 259 1.0 3.0 0.00 0.00 0.00 96 1007.6
20260507103558 48 228 1.0 2.0 0.00 0.00 0.00 96 1007.5
20260507102518 48 245 2.0 3.0 0.00 0.00 0.00 95 1007.1
20260507101518 48 251 0.0 1.0 0.00 0.00 0.00 95 1006.8
20260507100518 48 176 1.0 2.0 0.00 0.00 0.00 95 1006.9
20260507095518 48 218 1.0 3.0 0.00 0.00 0.00 95 1006.7
20260507094519 48 237 1.0 3.0 0.00 0.00 0.00 95 1006.7
20260507093559 49 227 0.0 2.0 0.00 0.00 0.00 94 1006.8
20260507092519 49 266 1.0 2.0 0.00 0.00 0.00 94 1006.9
20260507091519 49 277 1.0 2.0 0.00 0.00 0.00 94 1006.9
20260507090519 49 244 2.0 3.0 0.00 0.00 0.00 94 1007.2
20260507085519 50 253 2.0 4.0 0.00 0.00 0.00 94 1007.1
20260507084523 50 246 2.0 5.0 0.00 0.00 0.00 94 1007.0
20260507083520 50 242 2.0 4.0 0.00 0.00 0.00 94 1006.9
20260507082520 50 247 3.0 4.0 0.00 0.00 0.00 94 1006.8
20260507081520 51 243 2.0 3.0 0.00 0.00 0.00 94 1006.4
20260507080540 51 257 2.0 3.0 0.00 0.00 0.00 93 1006.7
20260507075520 52 250 2.0 3.0 0.00 0.00 0.00 92 1006.9
20260507074520 52 259 2.0 5.0 0.00 0.00 0.00 90 1006.5
20260507073537 53 252 3.0 7.0 0.00 0.00 0.00 90 1006.8
20260507072518 53 257 3.0 8.0 0.00 0.00 0.00 91 1006.1
20260507071521 54 288 2.0 3.0 0.00 0.00 0.00 91 1005.9
20260507070521 54 259 2.0 3.0 0.00 0.00 0.00 91 1006.0
20260507065521 54 283 2.0 3.0 0.00 0.00 0.00 92 1005.9
20260507064541 54 264 2.0 3.0 0.00 0.00 0.00 91 1005.8
20260507063521 54 265 2.0 4.0 0.00 0.00 0.00 91 1006.0
20260507062522 54 241 2.0 5.0 0.00 0.00 0.00 91 1006.0
20260507061521 55 276 2.0 3.0 0.00 0.00 0.00 91 1005.8
20260507060519 55 275 2.0 5.0 0.00 0.00 0.00 90 1006.0
20260507055522 55 240 2.0 4.0 0.00 0.00 0.00 90 1006.0
20260507054519 55 251 2.0 5.0 0.00 0.00 0.00 91 1006.0
20260507053543 56 260 2.0 4.0 0.00 0.00 0.00 92 1006.2
20260507052522 56 242 2.0 4.0 0.00 0.00 0.00 93 1006.0
20260507051522 56 239 2.0 4.0 0.00 0.00 0.00 93 1005.8
20260507050520 57 240 2.0 7.0 0.00 0.00 0.00 93 1005.9
20260507045520 57 244 2.0 7.0 0.00 0.00 0.00 94 1006.1
20260507044540 57 251 3.0 7.0 0.00 0.00 0.00 96 1006.2
20260507043520 58 251 3.0 7.0 0.00 0.00 0.00 96 1005.9
20260507042523 58 246 2.0 3.0 0.00 0.00 0.00 96 1006.0
20260507041521 58 252 3.0 5.0 0.00 0.00 0.00 97 1006.0
20260507040521 59 255 4.0 8.0 0.00 0.00 0.00 97 1006.1
20260507035520 59 252 3.0 6.0 0.00 0.00 0.00 97 1006.2
20260507034521 59 249 4.0 7.0 0.00 0.00 0.00 97 1005.8
20260507033521 59 250 4.0 7.0 0.00 0.00 0.00 96 1005.7
20260507032521 59 253 5.0 9.0 0.00 0.00 0.00 96 1005.8
20260507031521 59 250 4.0 8.0 0.00 0.00 0.00 95 1005.5
20260507030541 59 242 3.0 5.0 0.00 0.00 0.00 95 1005.3
20260507025521 59 242 4.0 8.0 0.00 0.00 0.00 95 1005.2
20260507024522 59 241 3.0 8.0 0.00 0.00 0.00 95 1005.3
20260507023516 59 240 4.0 7.0 0.00 0.00 0.00 95 1005.4
20260507022519 59 250 3.0 10.0 0.00 0.00 0.00 95 1005.4
20260507021521 59 230 3.0 7.0 0.00 0.00 0.00 95 1005.4
20260507020522 59 233 3.0 7.0 0.00 0.00 0.00 95 1005.4
20260507015522 59 202 3.0 8.0 0.00 0.00 0.00 95 1005.3
20260507014543 59 235 3.0 8.0 0.00 0.00 0.00 95 1005.5
20260507013522 59 208 4.0 10.0 0.00 0.00 0.00 95 1005.4
20260507012517 58 200 4.0 8.0 0.00 0.00 0.00 96 1005.5
20260507011517 58 194 4.0 9.0 0.00 0.00 0.00 95 1005.5
20260507010517 58 202 6.0 12.0 0.00 0.00 0.00 95 1005.6
20260507005517 58 221 4.0 8.0 0.00 0.00 0.00 95 1005.7
20260507004537 58 228 4.0 8.0 0.00 0.00 0.00 95 1005.7
20260507003523 58 220 4.0 8.0 0.00 0.00 0.00 95 1005.6
20260507002537 58 225 4.0 8.0 0.00 0.00 0.00 96 1005.7
20260507001518 59 211 3.0 5.0 0.00 0.00 0.00 95 1005.6
20260507000518 59 206 4.0 7.0 0.00 0.00 0.00 95 1005.3
20260506235538 59 187 5.0 11.0 0.00 0.00 0.00 95 1005.3